This is the latest recevied weather packets stored in our database for station/object NT9G. If no packets are shown the sender has not sent any weather packets the latest 10 day(s).
| Time | Temp. | Humidity | Pressure | Rain* | Wind** | Luminosity | Snow |
|---|---|---|---|---|---|---|---|
| 1777664710 | 12.78° C | 41% | 1018.5 hPa | 0.25 mm | - | - | - |
| 1777664409 | 12.78° C | 42% | 1018.6 hPa | 0.25 mm | - | - | - |
| 1777664109 | 12.22° C | 40% | 1018.6 hPa | 0.25 mm | - | - | - |
| 1777663809 | 12.78° C | 42% | 1018.6 hPa | 0.25 mm | - | - | - |
| 1777663208 | 12.22° C | 41% | 1018.4 hPa | 0.25 mm | - | - | - |
| 1777662908 | 12.78° C | 41% | 1018.4 hPa | 0.25 mm | - | - | - |
| 1777662608 | 12.78° C | 39% | 1018.4 hPa | 0.25 mm | - | - | - |
| 1777662307 | 12.78° C | 40% | 1018.3 hPa | 0.25 mm | - | - | - |
| 1777662007 | 13.33° C | 37% | 1018.2 hPa | 0.25 mm | - | - | - |
| 1777661707 | 13.33° C | 37% | 1018.1 hPa | 0.25 mm | - | - | - |
| 1777661407 | 13.33° C | 38% | 1018.1 hPa | 0.25 mm | - | - | - |
| 1777661106 | 13.33° C | 38% | 1018.1 hPa | 0.25 mm | - | - | - |
| 1777660806 | 13.33° C | 37% | 1018.1 hPa | 0.25 mm | - | - | - |
| 1777660506 | 13.33° C | 37% | 1018 hPa | 0.25 mm | - | - | - |
| 1777659905 | 13.89° C | 36% | 1017.9 hPa | 0.25 mm | - | - | - |
| 1777659605 | 13.89° C | 35% | 1017.9 hPa | 0.25 mm | - | - | - |
| 1777659305 | 14.44° C | 37% | 1017.9 hPa | 0.25 mm | - | - | - |
| 1777659004 | 13.89° C | 38% | 1017.9 hPa | 0.25 mm | - | - | - |
| 1777658704 | 13.33° C | 34% | 1017.9 hPa | 0.25 mm | - | - | - |
| 1777658404 | 13.33° C | 35% | 1018.1 hPa | 0.25 mm | - | - | - |
| 1777658104 | 13.89° C | 35% | 1018.2 hPa | 0.25 mm | - | - | - |
| 1777657503 | 13.89° C | 34% | 1018.2 hPa | 0.25 mm | - | - | - |
| 1777657203 | 13.89° C | 38% | 1018.1 hPa | 0.25 mm | - | - | - |
| 1777656902 | 13.33° C | 39% | 1018.1 hPa | 0.25 mm | - | - | - |
| 1777656602 | 13.33° C | 38% | 1018.1 hPa | 0.25 mm | - | - | - |
* Rain since midnight (hover to see other rain measurements)
** Current wind speed in m/s (hover to see current wind gust speed)